Location: Waco, TX
(31.5480°N, 97.1670°W)
Time: 03:05:42
(UTC-05:00)

ISS - Pass Details

Date: 14 September 2017
Orbit: 401 x 407 km, 51.6° (Epoch: 22 September)

Event Time Altitude Azimuth Distance (km) Brightness Sun altitude
Rises 08:31:39 0° 318° (NW) 2,329 -0.4 16.0°
Reaches altitude 10° 08:33:46 10° 322° (NW) 1,466 -1.4 16.5°
Maximum altitude 08:37:01 63° 44° (NE) 457 -3.0 17.2°
Drops below altitude 10° 08:40:15 10° 126° (SE) 1,456 0.2 17.9°
Sets 08:42:20 0° 130° (SE) 2,311 1.0 18.3°
